When you browse on this site, cookies collect data to enhance your experience and personalize the content and advertising you see.
Visit our Privacy Policy to learn more. By continuing to use the site, you agree to this use of cookies and data.
EN

Hourly Weather Pisek

Today, 2 July, Thursday

Time Temperature Precipitation Wind Pressure Humidity
00:00 +19°C° 0 mm 2 mps 724 mmHg 81%
01:00 +18°C° 0 mm 2 mps 724 mmHg 77%
02:00 +18°C° 0 mm 1 mps 724 mmHg 79%
03:00 +18°C° 0 mm 1 mps 723 mmHg 81%
04:00 +16°C° 0 mm 1 mps 723 mmHg 83%
05:00 +19°C° 0 mm 1 mps 724 mmHg 81%
06:00 +19°C° 0 mm 2 mps 724 mmHg 80%
07:00 +21°C° 0 mm 2 mps 725 mmHg 78%
08:00 +23°C° 0.1 mm 2 mps 725 mmHg 75%
09:00 +24°C° 0.1 mm 2 mps 725 mmHg 72%
10:00 +25°C° 0.1 mm 3 mps 725 mmHg 70%
11:00 +25°C° 0.5 mm 3 mps 725 mmHg 70%
12:00 +26°C° 0.5 mm 3 mps 725 mmHg 70%
13:00 +26°C° 0.5 mm 3 mps 725 mmHg 71%
14:00 +26°C° 0.9 mm 3 mps 725 mmHg 72%
15:00 +25°C° 0.9 mm 3 mps 725 mmHg 74%
16:00 +25°C° 0.9 mm 3 mps 725 mmHg 76%
17:00 +24°C° 0.7 mm 2 mps 725 mmHg 80%
18:00 +23°C° 0.7 mm 2 mps 725 mmHg 85%
19:00 +22°C° 0.7 mm 1 mps 725 mmHg 89%
20:00 +20°C° 0.4 mm 2 mps 725 mmHg 90%
21:00 +19°C° 0.4 mm 2 mps 725 mmHg 91%
22:00 +18°C° 0.4 mm 2 mps 726 mmHg 92%
23:00 +18°C° 0.1 mm 3 mps 726 mmHg 92%

Tomorrow, 3 July, Friday

Time Temperature Precipitation Wind Pressure Humidity
00:00 +17°C° 0.1 mm 3 mps 726 mmHg 91%
01:00 +17°C° 0.1 mm 3 mps 726 mmHg 91%
02:00 +16°C° 0 mm 3 mps 727 mmHg 91%
03:00 +16°C° 0 mm 3 mps 727 mmHg 91%
04:00 +16°C° 0 mm 3 mps 727 mmHg 91%
05:00 +16°C° 0 mm 3 mps 727 mmHg 89%
06:00 +16°C° 0 mm 3 mps 727 mmHg 88%
07:00 +17°C° 0 mm 3 mps 728 mmHg 86%
08:00 +18°C° 0 mm 3 mps 728 mmHg 80%
09:00 +19°C° 0 mm 4 mps 728 mmHg 73%
10:00 +21°C° 0 mm 4 mps 729 mmHg 66%
11:00 +21°C° 0.1 mm 4 mps 728 mmHg 63%
12:00 +22°C° 0.1 mm 4 mps 728 mmHg 61%
13:00 +24°C° 0.1 mm 3 mps 728 mmHg 58%
14:00 +24°C° 0.1 mm 3 mps 728 mmHg 58%
15:00 +24°C° 0.1 mm 3 mps 728 mmHg 59%
16:00 +24°C° 0.1 mm 3 mps 728 mmHg 60%
17:00 +23°C° 0 mm 2 mps 728 mmHg 65%
18:00 +21°C° 0 mm 2 mps 728 mmHg 70%
19:00 +21°C° 0 mm 1 mps 728 mmHg 74%
20:00 +19°C° 0 mm 1 mps 729 mmHg 77%
21:00 +18°C° 0 mm 1 mps 729 mmHg 79%
22:00 +15°C° 0 mm 1 mps 729 mmHg 81%
23:00 +15°C° 0 mm 1 mps 729 mmHg 81%

Day after tomorrow, 4 July, Saturday

Time Temperature Precipitation Wind Pressure Humidity
00:00 +14°C° 0 mm 1 mps 729 mmHg 82%
01:00 +14°C° 0 mm 1 mps 730 mmHg 83%
02:00 +13°C° 0 mm 1 mps 730 mmHg 83%
03:00 +13°C° 0 mm 1 mps 730 mmHg 82%
04:00 +13°C° 0 mm 1 mps 730 mmHg 82%
05:00 +14°C° 0 mm 1 mps 730 mmHg 78%
06:00 +16°C° 0 mm 1 mps 730 mmHg 74%
07:00 +19°C° 0 mm 1 mps 730 mmHg 71%
08:00 +19°C° 0 mm 2 mps 730 mmHg 66%
09:00 +21°C° 0 mm 2 mps 730 mmHg 61%
10:00 +22°C° 0 mm 3 mps 731 mmHg 56%
11:00 +24°C° 0 mm 3 mps 730 mmHg 55%
12:00 +24°C° 0 mm 3 mps 730 mmHg 55%
13:00 +25°C° 0 mm 3 mps 730 mmHg 54%
14:00 +25°C° 0 mm 3 mps 730 mmHg 55%
15:00 +25°C° 0 mm 3 mps 730 mmHg 56%
16:00 +25°C° 0 mm 3 mps 730 mmHg 56%
17:00 +24°C° 0 mm 3 mps 729 mmHg 61%
18:00 +23°C° 0 mm 2 mps 729 mmHg 67%
19:00 +21°C° 0 mm 2 mps 729 mmHg 72%
20:00 +19°C° 0 mm 2 mps 730 mmHg 74%
21:00 +18°C° 0 mm 2 mps 730 mmHg 77%
22:00 +16°C° 0 mm 2 mps 730 mmHg 79%
23:00 +16°C° 0 mm 2 mps 730 mmHg 81%

5 July, Sunday

Time Temperature Precipitation Wind Pressure Humidity
00:00 +15°C° 0 mm 1 mps 730 mmHg 82%
01:00 +15°C° 0 mm 1 mps 730 mmHg 84%
02:00 +15°C° 0 mm 1 mps 730 mmHg 84%
03:00 +15°C° 0 mm 1 mps 730 mmHg 84%
04:00 +14°C° 0 mm 1 mps 729 mmHg 85%
05:00 +16°C° 0 mm 1 mps 729 mmHg 80%
06:00 +18°C° 0 mm 2 mps 729 mmHg 76%
07:00 +20°C° 0 mm 2 mps 730 mmHg 72%
08:00 +21°C° 0 mm 3 mps 730 mmHg 68%
09:00 +22°C° 0 mm 3 mps 730 mmHg 65%
10:00 +25°C° 0 mm 4 mps 730 mmHg 61%
11:00 +26°C° 0 mm 4 mps 729 mmHg 60%
12:00 +26°C° 0 mm 4 mps 729 mmHg 59%
13:00 +27°C° 0 mm 4 mps 729 mmHg 58%
14:00 +27°C° 0.2 mm 4 mps 729 mmHg 60%
15:00 +27°C° 0.2 mm 4 mps 729 mmHg 62%
16:00 +27°C° 0.2 mm 4 mps 728 mmHg 63%
17:00 +25°C° 0.1 mm 4 mps 728 mmHg 69%
18:00 +24°C° 0.1 mm 3 mps 728 mmHg 75%
19:00 +22°C° 0.1 mm 3 mps 728 mmHg 81%
20:00 +21°C° 0 mm 2 mps 728 mmHg 84%
21:00 +19°C° 0 mm 2 mps 728 mmHg 88%
22:00 +18°C° 0 mm 2 mps 728 mmHg 91%
23:00 +18°C° 0 mm 2 mps 728 mmHg 92%

6 July, Monday

Time Temperature Precipitation Wind Pressure Humidity
00:00 +17°C° 0 mm 2 mps 728 mmHg 92%
01:00 +17°C° 0 mm 2 mps 728 mmHg 93%
02:00 +17°C° 0 mm 2 mps 728 mmHg 93%
03:00 +16°C° 0 mm 2 mps 728 mmHg 94%
04:00 +16°C° 0 mm 2 mps 728 mmHg 94%
05:00 +17°C° 0 mm 2 mps 728 mmHg 90%
06:00 +19°C° 0 mm 3 mps 728 mmHg 86%
07:00 +20°C° 0 mm 3 mps 728 mmHg 82%
08:00 +22°C° 0 mm 3 mps 728 mmHg 75%
09:00 +23°C° 0 mm 4 mps 728 mmHg 69%
10:00 +25°C° 0 mm 4 mps 728 mmHg 63%
11:00 +26°C° 0 mm 4 mps 727 mmHg 60%
12:00 +27°C° 0 mm 4 mps 727 mmHg 56%
13:00 +28°C° 0 mm 4 mps 726 mmHg 53%
14:00 +28°C° 0 mm 4 mps 726 mmHg 54%
15:00 +28°C° 0 mm 4 mps 726 mmHg 55%
16:00 +28°C° 0 mm 4 mps 726 mmHg 57%
17:00 +26°C° 0 mm 4 mps 726 mmHg 63%
18:00 +25°C° 0 mm 3 mps 726 mmHg 69%
19:00 +22°C° 0 mm 3 mps 726 mmHg 75%
20:00 +20°C° 0 mm 3 mps 726 mmHg 80%
21:00 +19°C° 0 mm 2 mps 726 mmHg 85%
22:00 +17°C° 0 mm 2 mps 727 mmHg 90%
23:00 +17°C° 0 mm 2 mps 727 mmHg 88%

7 July, Tuesday

Time Temperature Precipitation Wind Pressure Humidity
00:00 +17°C° 0 mm 2 mps 727 mmHg 86%
01:00 +17°C° 0 mm 2 mps 727 mmHg 85%
02:00 +16°C° 0 mm 2 mps 728 mmHg 86%
03:00 +15°C° 0 mm 2 mps 728 mmHg 87%
04:00 +14°C° 0 mm 2 mps 728 mmHg 88%
05:00 +14°C° 0 mm 2 mps 728 mmHg 85%
06:00 +14°C° 0 mm 2 mps 728 mmHg 82%
07:00 +15°C° 0 mm 2 mps 729 mmHg 79%
08:00 +15°C° 0.2 mm 1 mps 729 mmHg 79%
09:00 +16°C° 0.2 mm 1 mps 729 mmHg 78%
10:00 +16°C° 0.2 mm 1 mps 729 mmHg 77%
11:00 +16°C° 0.1 mm 1 mps 729 mmHg 78%
12:00 +16°C° 0.1 mm 1 mps 729 mmHg 79%
13:00 +16°C° 0.1 mm 1 mps 729 mmHg 81%
14:00 +16°C° 0.3 mm 1 mps 729 mmHg 80%
15:00 +18°C° 0.3 mm 1 mps 729 mmHg 80%
16:00 +17°C° 0.3 mm 2 mps 730 mmHg 80%
17:00 +16°C° 0.3 mm 1 mps 730 mmHg 81%
18:00 +16°C° 0.3 mm 1 mps 730 mmHg 82%
19:00 +16°C° 0.3 mm 1 mps 730 mmHg 84%
20:00 +15°C° 0.4 mm 1 mps 731 mmHg 85%
21:00 +14°C° 0.4 mm 1 mps 731 mmHg 87%
22:00 +13°C° 0.4 mm 1 mps 732 mmHg 89%
23:00 +13°C° 0 mm 1 mps 732 mmHg 90%
Show more